Regional Weather Roundup
Issued by NWS

Home | Current Version | Previous Version | Graphics & Text | Print | Product List | Glossary Off
Versions: 1 2 3 4 5 6 7 8 9 10 11 12 13 14 15 16 17 18 19 20 21 22 23 24 25 26 27 28 29 30 31 32 33 34 35 36 37 38 39 40 41 42 43 44 45 46 47 48 49 50

000
ASUS43 KIND 270209
RWRIN

WEATHER ROUNDUP FOR INDIANA
NATIONAL WEATHER SERVICE INDIANAPOLIS IN
1000 PM EDT TUE MAY 26 2015

NOTE: "FAIR" INDICATES FEW OR NO CLOUDS BELOW 12,000 FEET WITH NO
SIGNIFICANT WEATHER AND/OR OBSTRUCTIONS TO VISIBILITY.

* - STATION DOES NOT REPORT WEATHER SUCH AS PRECIPITATION OR FOG.

+ - STATION NOT QUALITY CONTROLLED BY THE NATIONAL WEATHER SERVICE.
    USE DATA WITH CAUTION...ESPECIALLY DEWPOINT AND RELATIVE
    HUMIDITY OBSERVATIONS.

INZ001>003-010>013-019-020-270300-
NORTHWEST INDIANA

CITY           SKY/WX    TMP DP  RH WIND       PRES   REMARKS
GARY /AIRPORT/ PTCLDY    72  63  73 SW8       29.85R
KNOX *+        CLEAR     68  59  73 SW12      29.88R
LA PORTE +     CLEAR     70  61  73 SW10      29.88R
MICHIGAN CITY+ CLEAR     68  59  73 SW10G18   29.86R
MONTICELLO +   PTCLDY    68  63  84 SW10      29.91R
RENSSELAER +   PTCLDY    68  63  83 SW13      29.91R
VALPARAISO     CLEAR     69  60  73 SW10      29.88R

$$

LMZ046-743>745-270300-
SOUTHERN LAKE MICHIGAN

STATION/POSITION TIME  TEMP    WIND        PRES    WAVE
                       AIR SEA DIR/SP/G            HT
                 (UTC) (F)     (DEG/KT/KT) (MB)    (FT)
BURNS HARBOR     0200   70     210/ 13/ 18 1011.2S
MICHIGAN CITY    0200   70     180/ 15/ 18   N/A
5NW MICH CITY    0200   62 52  220/ 10/ 12   N/A     3

$$

INZ004-005-014>016-021>024-270300-
NORTH CENTRAL INDIANA

CITY           SKY/WX    TMP DP  RH WIND       PRES   REMARKS
GOSHEN         MOCLDY    71  60  68 SW20G29   29.89R
LOGANSPORT +   CLOUDY    70  57  64 SW10      29.93R
PERU/GRISSOM   MOCLDY    71  62  72 W10       29.92R
ROCHESTER +    CLOUDY    72  61  68 SW10G18   29.91R
SOUTH BEND     PTCLDY    70  60  70 SW10      29.87R
WARSAW +       MOCLDY    70  61  73 SW10G20   29.90R

$$

INZ006>009-017-018-025>027-270300-
NORTHEAST INDIANA

CITY           SKY/WX    TMP DP  RH WIND       PRES   REMARKS
ANGOLA *+      PTCLDY    72  64  78 SW9       29.89R
AUBURN +       PTCLDY    72  64  78 S7        29.91R
FORT WAYNE     MOCLDY    71  66  84 S15       29.92R
HUNTINGTON +   MOCLDY    72  65  80 SW5       29.92R

$$

INZ028-029-035-036-043>045-051>053-270300-
WEST CENTRAL INDIANA

CITY           SKY/WX    TMP DP  RH WIND       PRES   REMARKS
CRAWFORDSVL +  MOCLDY    68  54  59 SW8       29.95R
GREENCASTLE +  MOCLDY    70  54  56 S5        29.98R
LAFAYETTE      CLOUDY    69  61  75 SW6       29.92R
TERRE HAUTE    PTCLDY    72  59  63 SW9       29.96R

$$

INZ030>032-037>040-046>048-054>057-064-065-270300-
CENTRAL INDIANA

CITY           SKY/WX    TMP DP  RH WIND       PRES   REMARKS
CP ATTERBURY + PTCLDY    70  63  78 S5        29.99R
COLUMBUS       PTCLDY    72  64  78 S9        29.99R
FRANKFORT +    PTCLDY    71  58  64 SW6       29.96R
GREENWOOD *+   PTCLDY    72  55  56 SW6       29.99R
INDIANAPOLIS   MOCLDY    69  57  65 SW8       29.96R
-EAGLE CREEK   CLEAR     72  57  59 SW8       29.96R
KOKOMO *+      MOCLDY    73  57  56 SW14G21   29.93R
MARION +       MOCLDY    70  57  63 SW10      29.95R
MT COMFORT *+  MOCLDY    72  50  46 SW10G17   29.98R
SHELBYVILLE    MOCLDY    73  66  78 S13       29.97R
ZIONSVILLE +   PTCLDY    71  56  58 SW12      29.97R

$$

INZ033-034-041-042-049-050-058-059-270300-
EAST CENTRAL INDIANA

CITY           SKY/WX    TMP DP  RH WIND       PRES   REMARKS
MUNCIE         MOCLDY    72  65  78 SW9       29.95R

$$

INZ060-061-067>069-081>083-085>088-270300-
SOUTHWEST INDIANA

CITY           SKY/WX    TMP DP  RH WIND       PRES   REMARKS
EVANSVILLE     CLEAR     69  62  78 SW7       30.02R
HUNTINGBURG *+ PTCLDY    70  61  73 SW7       30.02R
WASHINGTON +   PTCLDY    71  56  59 SW10      29.99R

$$

INZ062-063-066-070>080-084-089>092-270300-
SOUTH CENTRAL AND SOUTHEAST INDIANA

CITY           SKY/WX    TMP DP  RH WIND       PRES   REMARKS
BLOOMINGTON    MOCLDY    71  59  65 SW7       29.99R
MADISON *+     CLOUDY    68  64  88 S9        30.04R
NORTH VERNON + CLOUDY    70  70 100 S8        30.01R
SEYMOUR +      MOCLDY    72  66  83 S7        30.00R

$$



USA.gov is the U.S. government's official web portal to all federal, state and local government web resources and services.